Weather in Suna

Russia / Kirov Oblast     58°10′47″N   51°16′23″E
temp.,
°C
wind,
m/s
gust,
m/s
humid.,
%
clouds,
%
prec.,
mm/h
press.,
hPa
HPBL,
m
22 january, sat
sat2200:00−15sse3897100 0.0 1021133
03:00−14se41195100 0.0 1021209
06:00−14se41095100 0.0 1022198
09:00−14se41195100 0.0 1023235
12:00−11se41093100 0.0 1024309
15:00−12ese499485 0.0 1025193
18:00−12se51193100 0.0 1026242
21:00−10se51194100 0.4 1026355
23 january, sun
sun2300:00−11se41095100 0.1 1026217
03:00−8se51295100 0.4 1026381
06:00−6sse61394100 0.6 1027511
09:00−7sse61194100 1.1 1028504
12:00−6s5993100 0.1 1030462
15:00−6s4894100 0.4 1031392
18:00−6s3896100 0.3 1032336
21:00−6ssw3796100 0.9 1033317
24 january, mon
mon2400:00−9sw2697100 0.2 1035108
03:00−13sw249989 0.2 103645
06:00−18wsw22100100 0.0 103813
09:00−17wsw25100100 0.1 103965
12:00−11w369561 0.0 1038167
15:00−13sw229753 0.0 103817
18:00−15sw3699100 0.0 103861
21:00−16sw3698100 0.0 103870
25 january, tue
tue2500:00−16sw3898100 0.0 1037106
03:00−16sw389857 0.0 1036104
06:00−17sw3710088 0.0 103589
09:00−17sw3710098 0.0 103492
12:00−11sw4796100 0.0 1032195
15:00−11ssw37945 0.0 1030135
18:00−14ssw410945 0.0 1029152
21:00−15ssw410965 0.0 1028150
26 january, wed
wed2600:00−17ssw410945 0.0 1028143
03:00−19ssw389395 0.0 1028109
06:00−19s389684 0.0 1027104
09:00−17ssw3109793 0.0 1027160
12:00−12ssw4793100 0.1 1026222
15:00−11s379591 0.3 1026240
18:00−15sse259986 0.1 102776
21:00−18sse2410092 0.1 102748